Milford, UT

9:25 PM MST on February 23, 2018 (GMT -0700)
Milford Municipal

Weather History for KMLF - December, 2012

Change the Weather History Date:

Saturday, December 1, 2012

  Actual Average Record
Temperature  
Mean Temperature 46 °F -  
Max Temperature 54 °F 43 °F 60 °F (2003)
Min Temperature 39 °F 19 °F 0 °F (2004)
Degree Days  
Heating Degree Days 18    
Moisture  
Dew Point 37 °F    
Average Humidity 68    
Maximum Humidity 86    
Minimum Humidity 45    
Precipitation  
Precipitation 0.00 in - - ()
Sea Level Pressure  
Sea Level Pressure 30.02 in    
Wind  
Wind Speed 12 mph (SSW)    
Max Wind Speed 20 mph    
Max Gust Speed 26 mph    
Visibility 10 miles    
Events      
Averages and records for this station are not official NWS values.
T = Trace of Precipitation, MM = Missing Value Source: NWS Daily Summary

Daily Weather History Graph

Daily Weather History Graph

Search for Another Location

Airport or City:

Trip Planner

Search our weather history database for the weather conditions in past years. The results will help you decide how hot, cold, wet, or windy it might be!

Date:

Astronomy

Dec. 01, 2012 Rise Set
Actual Time 7:30 AM MST 5:11 PM MST
Civil Twilight 7:01 AM MST 5:40 PM MST
Nautical Twilight 6:28 AM MST 6:13 PM MST
Astronomical Twilight 5:56 AM MST 6:45 PM MST
Moon 8:04 PM MST (12/1) 9:46 AM MST (12/1)
Length of Visible Light 10h 39m
Length of Day
9h 40m
Waning Gibbous, 91% of the Moon is Illuminated
Dec 1
Waning Gibbous
Dec 6
Last Quarter
Dec 13
New
Dec 19
First Quarter
Dec 28
Full

Hourly Weather History & Observations

Time (MST) Temp. Windchill Dew Point Humidity Pressure Visibility Wind Dir Wind Speed Gust Speed Precip Events Conditions
12:25 AM 44.6 °F 40.7 °F 37.4 °F 76% 30.05 in 10.0 mi South 6.9 mph - N/A   Partly Cloudy
12:52 AM 45.0 °F 41.8 °F 37.0 °F 74% 30.00 in 10.0 mi SE 5.8 mph - N/A   Partly Cloudy
1:52 AM 42.1 °F 35.7 °F 36.0 °F 79% 30.03 in 10.0 mi SSE 11.5 mph - N/A   Clear
2:52 AM 42.1 °F 36.1 °F 37.0 °F 82% 30.03 in 10.0 mi SSW 10.4 mph - N/A   Clear
3:52 AM 41.0 °F 33.5 °F 36.0 °F 82% 30.02 in 10.0 mi SW 13.8 mph - N/A   Clear
4:52 AM 41.0 °F 33.5 °F 36.0 °F 82% 30.01 in 10.0 mi SW 13.8 mph - N/A   Clear
5:52 AM 39.9 °F 31.8 °F 35.1 °F 83% 30.01 in 10.0 mi SW 15.0 mph - N/A   Clear
6:52 AM 42.1 °F 33.9 °F 35.1 °F 76% 30.03 in 10.0 mi SW 17.3 mph - N/A   Clear
7:52 AM 43.0 °F 35.1 °F 35.1 °F 74% 30.04 in 10.0 mi SSW 17.3 mph - N/A   Clear
8:52 AM 48.0 °F - 37.0 °F 66% 30.01 in 10.0 mi South 17.3 mph - N/A   Clear
9:41 AM 48.2 °F - 37.4 °F 66% 30.07 in 10.0 mi South 19.6 mph 26.5 mph N/A   Clear
9:52 AM 50.0 °F - 37.0 °F 61% 30.00 in 10.0 mi South 18.4 mph 25.3 mph N/A   Clear
10:52 AM 50.0 °F - 37.9 °F 63% 30.03 in 10.0 mi SSW 12.7 mph 19.6 mph N/A   Clear
11:52 AM 52.0 °F - 37.9 °F 59% 30.05 in 10.0 mi SSW 15.0 mph - N/A   Clear
12:52 PM 52.0 °F - 37.9 °F 59% 30.01 in 10.0 mi SSW 19.6 mph - N/A   Clear
1:52 PM 53.1 °F - 39.0 °F 59% 30.00 in 10.0 mi SSW 16.1 mph - N/A   Clear
2:52 PM 54.0 °F - 37.0 °F 53% 30.00 in 10.0 mi South 16.1 mph 20.7 mph N/A   Clear
3:52 PM 53.1 °F - 37.0 °F 55% 30.01 in 10.0 mi SSW 12.7 mph - N/A   Clear
4:52 PM 51.1 °F - 36.0 °F 56% 30.01 in 10.0 mi SSW 13.8 mph - N/A   Clear
5:52 PM 48.0 °F - 36.0 °F 63% 30.03 in 10.0 mi South 9.2 mph - N/A   Clear
6:52 PM 48.0 °F - 37.0 °F 66% 30.02 in 10.0 mi South 13.8 mph - N/A   Clear
7:52 PM 46.0 °F 41.4 °F 37.0 °F 71% 30.01 in 10.0 mi SSW 9.2 mph - N/A   Clear
8:52 PM 45.0 °F 38.5 °F 37.0 °F 74% 29.98 in 10.0 mi South 13.8 mph - N/A   Clear
9:52 PM 39.9 °F 32.1 °F 35.1 °F 83% 30.01 in 10.0 mi SW 13.8 mph - N/A   Clear
10:52 PM 39.0 °F 31.8 °F 34.0 °F 82% 30.01 in 10.0 mi SSW 11.5 mph - N/A   Clear
11:52 PM 39.0 °F 32.3 °F 35.1 °F 86% 30.01 in 10.0 mi SW 10.4 mph - N/A   Partly Cloudy